User: anonymous   Login
Location: Caltech
(34.1382°N, 118.1253°W)
Time: 17:41:07
(UTC-08:00)
Language:

Cosmos 1758 Rocket - Orbit

View from above orbital plane
View from above orbital plane
View from above satellite
View from above satellite

Ground track
Ground track

The orbit data is extracted from the following two-line orbital elements,

1 16792U 86046B   17049.85237007 +.00000078 +00000-0 +65862-5 0  9999
2 16792 082.4846 313.7536 0023419 325.9616 105.0758 14.83116450636259
Epoch (UTC): 18 February 2017 20:27:24
Eccentricity: 0.0023419
inclination: 82.4846°
perigee height: 603 km
apogee height: 636 km
right ascension of ascending node: 313.7536°
argument of perigee: 325.9616°
revolutions per day: 14.83116450
mean anomaly at epoch: 105.0758°
orbit number at epoch: 63625

The dashed part of the orbit path shows where the satellite is in the earth's shadow,  

DLR